Regional Weather Roundup
Issued by NWS

Home | Current Version | Previous Version | Graphics & Text | Print | Product List | Glossary On
Versions: 1 2 3 4 5 6 7 8 9 10 11 12 13 14 15 16 17 18 19 20 21 22 23 24 25 26 27 28 29 30 31 32 33 34 35 36 37 38 39 40 41 42 43 44 45 46 47 48 49 50
000
ASUS43 KDMX 252001
RWRIA

WEATHER ROUNDUP FOR IOWA
NATIONAL WEATHER SERVICE DES MOINES IA
300 PM CDT MON SEP 25 2017

NOTE: "FAIR" INDICATES FEW OR NO CLOUDS BELOW 12,000 FEET WITH NO
SIGNIFICANT WEATHER AND/OR OBSTRUCTIONS TO VISIBILITY.

* - THESE STATIONS ARE NOT NWS STATIONS...THUS NOT UNDER NWS
QUALITY CONTROL.  THEY ALSO DO NOT REPORT WEATHER SUCH
AS PRECIPITATION OR FOG.

IAZ001>003-012>014-020>022-031>034-043>046-252100-
   NORTHWEST IOWA

CITY           SKY/WX    TMP DP  RH WIND       PRES   REMARKS
CARROLL *      DRIZZLE   70  70 100 N12       29.90F
CHEROKEE *     CLOUDY    59  59 100 NE12      29.92F
DENISON *      PTSUNNY   68  66  94 NE9       29.92F
LE MARS *      CLOUDY    57  55  94 N10       29.96F
ORANGE CITY *  CLOUDY    57  57 100 NE9       29.96F
SHELDON *      PTSUNNY   55  54  94 N10       29.96F
SIOUX CITY     CLOUDY    59  57  93 N13       29.95F
SPENCER        LGT RAIN  58  56  93 NE13      29.97F
STORM LAKE *     N/A     59  57  94 NE13G18   29.93F
$$

IAZ055>058-069>071-079>083-090>094-252100-
   SOUTHWEST IOWA

CITY           SKY/WX    TMP DP  RH WIND       PRES   REMARKS
ATLANTIC *     PTSUNNY   73  70  88 N12       29.89S
AUDUBON *      CLOUDY    68  64  88 NE8       29.92S
CLARINDA *     CLOUDY    70  68  94 NW9       29.90S FOG
COUNCIL BLFS * CLOUDY    68  68 100 NW6       29.91S
CRESTON *      PTSUNNY   79  68  69 W10       29.88S HX  81
HARLAN  *      PTSUNNY   72  66  83 NE9       29.94S
LAMONI         MOSUNNY   85  66  53 S9        29.87F HX  87
RED OAK *      PTSUNNY   79  68  69 VRB6      29.88S HX  81
SHENANDOAH *   PTSUNNY   79  66  65 NW9       29.88S HX  81
$$

IAZ047>049-059>061-072>074-084-252100-
   CENTRAL IOWA

CITY           SKY/WX    TMP DP  RH WIND       PRES   REMARKS
AMES           LGT RAIN  84  68  58 CALM      29.86F HX  87
ANKENY *       CLOUDY    79  72  78 CALM      29.86F HX  82
BOONE *        CLOUDY    82  66  57 VRB5      29.86F HX  85
CHARITON *     MOSUNNY   86  64  48 S13G21    29.86F HX  87
DES MOINES     PTSUNNY   85  68  56 N5        29.84F THUNDER HX  88
GRINNELL*      CLOUDY    88  58  36 E10       29.89F HX  87
KNOXVILLE *    MOSUNNY   88  64  45 SE8G17    29.85F HX  89
MARSHALLTOWN   MOSUNNY   88  65  46 S12       29.86F HX  90
NEWTON *       PTSUNNY   88  63  42 S10       29.86F HX  88
PELLA *        SUNNY     90  60  36 S14       29.87F HX  89
PERRY *        CLOUDY    81  68  64 S13G18    29.88R HX  84
$$

IAZ004>006-015-016-023>025-035-036-252100-
   NORTH CENTRAL IOWA

CITY           SKY/WX    TMP DP  RH WIND       PRES   REMARKS
ALGONA *       PTSUNNY   61  61 100 N12       29.96F
CLARION *      SUNNY     81  64  57 NW5       29.89F HX  82
ESTHERVILLE    CLOUDY    56  56 100 N9        29.98S
FORT DODGE *   LGT RAIN  63  61  93 VRB6      29.95R
MASON CITY     SUNNY     80  66  62 NW6       29.92F HX  82
FOREST CITY *    N/A     68  63  83 N13       29.93F
WEBSTER CITY * MOSUNNY   81  63  54 CALM      29.87F HX  82
IOWA FALLS *     N/A     83  67  58 W3        29.89F HX  86
$$

IAZ007>011-017>019-026>030-037>042-050>054-066-252100-
   NORTHEAST IOWA

CITY           SKY/WX    TMP DP  RH WIND       PRES   REMARKS
CEDAR RAPIDS   SUNNY     91  61  36 S14       29.87F HX  91
CHARLES CITY * SUNNY     81  68  65 S5        29.90F HX  83
CLINTON *      MOSUNNY  N/A N/A N/A S13       29.90F
DECORAH *      PTSUNNY   72  66  83 CALM      29.91S
DUBUQUE        MOSUNNY   87  64  46 S15       29.90F HX  88
MONTICELLO *   MOSUNNY   91  61  35 MISG      29.87F HX  91
OELWEIN *      MOSUNNY   82  64  54 SE15      29.89F HX  84
WATERLOO       CLOUDY    76  66  71 NW10      29.87R
$$

IAZ064-065-067-068-078-252100-
   EAST CENTRAL IOWA

CITY           SKY/WX    TMP DP  RH WIND       PRES   REMARKS
DAVENPORT      SUNNY     89  64  43 S8        29.92F HX  90
IOWA CITY      SUNNY     92  63  38 S7        29.89F HX  93
MUSCATINE *    SUNNY     91  63  38 S13       29.88F HX  92
QUAD CITIES    SUNNY     91  63  39 SW12G18   29.89F HX  92
$$

IAZ062-063-075>077-085>089-095>099-252100-
   SOUTHEAST IOWA

CITY           SKY/WX    TMP DP  RH WIND       PRES   REMARKS
BURLINGTON     SUNNY     88  65  46 SE6       29.90F HX  90
FAIRFIELD *    MOSUNNY   86  64  48 S7G14     29.89F HX  87
FORT MADISON * SUNNY     91  63  38 S12       29.90F HX  92
KEOKUK *       SUNNY     91  63  38 S12G17    29.89F HX  92
OSKALOOSA *      N/A     90  62  39 S15       29.88F HX  90
OTTUMWA        SUNNY     87  66  49 S13G20    29.88F HX  89
WASHINGTON *   SUNNY     90  64  43 S10       29.89F HX  91
$$

ABBREVIATIONS USED IN REMARKS
   TC - TEMPERATURES IN CELSIUS
  WCI - WIND CHILL INDEX
   HX - HEAT INDEX
  VSB - VISIBILITY
$$




USA.gov is the U.S. government's official web portal to all federal, state and local government web resources and services.